This is the latest recevied weather packets stored in our database for station/object p43g-13. If no packets are shown the sender has not sent any weather packets the latest 10 day(s).
| Time | Temp. | Humidity | Pressure | Rain* | Wind** | Luminosity | Snow |
|---|---|---|---|---|---|---|---|
| 1787405474 | 30° C | 77% | 1013 hPa | 0 mm | - | 334 W/m² | - |
| 1787405174 | 30° C | 77% | 1013 hPa | 0 mm | - | 345 W/m² | - |
| 1787404873 | 30° C | 78% | 1013.3 hPa | 0 mm | - | 384 W/m² | - |
| 1787404274 | 29.44° C | 78% | 1013.2 hPa | 0 mm | - | 365 W/m² | - |
| 1787403974 | 29.44° C | 78% | 1013.3 hPa | 0 mm | - | 354 W/m² | - |
| 1787403675 | 30° C | 78% | 1013.2 hPa | 0 mm | - | 253 W/m² | - |
| 1787403374 | 29.44° C | 78% | 1013.4 hPa | 0 mm | - | 365 W/m² | - |
| 1787403074 | 29.44° C | 78% | 1013.4 hPa | 0 mm | - | 370 W/m² | - |
| 1787402774 | 29.44° C | 78% | 1013.3 hPa | 0 mm | - | 350 W/m² | - |
| 1787402472 | 29.44° C | 79% | 1013.1 hPa | 0 mm | - | 319 W/m² | - |
| 1787402173 | 29.44° C | 79% | 1013.3 hPa | 0 mm | - | 284 W/m² | - |
| 1787401862 | 29.44° C | 81% | 1013.2 hPa | 0 mm | - | 241 W/m² | - |
| 1787401561 | 28.89° C | 81% | 1013 hPa | 0 mm | - | 237 W/m² | - |
| 1787401261 | 28.89° C | 81% | 1013.2 hPa | 0 mm | - | 210 W/m² | - |
| 1787400949 | 28.89° C | 82% | 1013.2 hPa | 0 mm | - | 172 W/m² | - |
| 1787400649 | 28.89° C | 82% | 1013.3 hPa | 0 mm | - | 167 W/m² | - |
| 1787400349 | 28.89° C | 82% | 1013 hPa | 0 mm | - | 150 W/m² | - |
| 1787399737 | 28.33° C | 83% | 1013.5 hPa | 0 mm | - | 111 W/m² | - |
| 1787399437 | 28.33° C | 83% | 1013.2 hPa | 0 mm | - | 100 W/m² | - |
| 1787399125 | 28.33° C | 83% | 1013.1 hPa | 0 mm | - | 92 W/m² | - |
| 1787398825 | 28.33° C | 83% | 1013 hPa | 0 mm | - | 83 W/m² | - |
| 1787398526 | 28.33° C | 83% | 1013 hPa | 0 mm | - | 73 W/m² | - |
| 1787398225 | 28.33° C | 83% | 1013.1 hPa | 0 mm | - | 65 W/m² | - |
| 1787397926 | 27.78° C | 83% | 1012.9 hPa | 0 mm | - | 56 W/m² | - |
| 1787397625 | 27.78° C | 83% | 1012.8 hPa | 0 mm | - | 49 W/m² | - |
* Rain latest hour (hover to see other rain measurements)
** Current wind speed in m/s (hover to see current wind gust speed)